STARLINK-1063

Last updated on Thu Dec 12 2019 00:02:04 GMT+0000 (Coordinated Universal Time)

1 44768U 19074BH 19345.58335648 -.00074893 00000-0 -20464-2 0 9995 2 44768 53.0063 23.9607 0001155 72.4548 293.5649 15.37034839 4709

Satellite not in orbit